カタログに戻る

STARLINK-37921

運用中通信VLEO
NORAD 69969·PAYLOAD·🇺🇸 United States

打ち上げ Jul 9, 2026 から Cape Canaveral Space Force Station

Loading…

次のパス (今後24時間)

TLE

最新Source: CelesTrak SupGP

元期: Sep 14, 2026, 22:57 UTC

1 69969C 26157AC  26257.95673611 -.00005818  00000+0 -17186-3 0  2576
2 69969  53.1601 359.4166 0001209  83.7993 316.7377 15.34398560    11

AllMySatでSTARLINK-37921をリアルタイム追跡

Download on the App Store